Date String (YYYY-MM-DD hh:mm:ss) UTC,Instrument flags,absolute air pressure of the measurement (hPa),sample flow rate (lpm),inlet stack bypass flow (lpm),air temperature of the measurement (°C),ambient temperature measured by the external sensor (°C),aerosol sample conditioner tube jacket temperature (°C),OPC LED temperature (°C),internal box temperature (°C),relative humidity of the measurement (%),span deviation,mass concentration of particles derived from Lorenz-Mie calculation of OPC scattering (μg/m³),mass concentration of particles derived from Lorenz-Mie calculation of OPC scattering (μg/m³),mass concentration of particles derived from Lorenz-Mie calculation of OPC scattering (μg/m³)
DateTimeUTC,F1_M11,P_M11,Q1_M11,Q2_M11,T1_M11,T2_M11,T3_M11,T4_M11,T5_M11,U1_M11,ZSPAN_M11,X0_M11,X2_M11,X1_M11
2023-09-04 02:00:00,SystemResetWarning,0828.2,4.99,000.00,028.8,024.5,000.0,037.2,029.3,30.5,0000.0,0005.60,0002.82,0002.21
2023-09-04 02:01:00,SystemResetWarning,0828.2,4.99,000.00,028.7,025.0,000.0,037.2,029.4,30.4,0000.0,0005.56,0002.81,0002.19
2023-09-04 02:02:00,SystemResetWarning,0828.3,5.01,000.00,028.7,025.4,000.0,037.2,029.5,30.3,0000.0,0005.39,0002.77,0002.18
2023-09-04 02:03:00,SystemResetWarning,0828.3,5.00,000.00,028.7,025.8,000.0,037.1,029.6,30.7,0000.0,0004.08,0002.69,0002.13
2023-09-04 02:04:00,SystemResetWarning,0828.4,5.02,000.00,028.7,026.1,000.0,037.1,029.7,30.9,0000.0,0003.95,0002.62,0002.06
2023-09-04 02:05:00,SystemResetWarning,0828.4,5.00,000.00,028.7,026.4,000.0,037.1,029.8,31.1,0000.0,0003.84,0002.52,0001.98
2023-09-04 02:06:00,SystemResetWarning,0828.4,5.00,000.00,028.7,026.6,000.0,037.1,029.9,31.0,0000.0,0003.73,0002.42,0001.89
2023-09-04 02:07:00,SystemResetWarning,0828.6,5.00,000.00,028.8,026.8,000.0,037.1,029.9,31.2,0000.0,0003.58,0002.32,0001.81
2023-09-04 02:08:00,SystemResetWarning,0828.6,4.99,000.00,028.8,026.9,000.0,037.1,030.0,31.4,0000.0,0003.29,0002.18,0001.72
2023-09-04 02:09:00,SystemResetWarning,0828.7,4.99,000.00,028.8,027.1,000.0,037.1,030.1,32.6,0000.0,0003.14,0002.08,0001.62
2023-09-04 02:10:00,SystemResetWarning,0828.7,5.00,000.00,028.8,027.2,000.0,037.1,030.1,34.0,0000.0,0003.05,0001.98,0001.52
2023-09-04 02:11:00,SystemResetWarning,0828.7,4.98,000.00,028.9,027.3,000.0,037.1,030.1,34.9,0000.0,0002.72,0001.82,0001.43
2023-09-04 02:12:00,SystemResetWarning,0828.7,5.03,000.00,028.9,026.2,000.0,037.0,030.0,35.1,0000.0,0002.47,0001.68,0001.36
2023-09-04 02:13:00,SystemResetWarning,0828.7,5.00,000.00,029.1,025.0,000.0,037.0,029.8,34.3,0000.0,0002.36,0001.56,0001.28
2023-09-04 02:14:00,SystemResetWarning,0828.7,4.99,000.00,029.1,024.8,000.0,036.9,029.6,33.7,0000.0,0002.35,0001.46,0001.21
2023-09-04 02:15:00,SystemResetWarning,0828.7,5.01,000.00,029.1,025.0,000.0,037.0,029.5,32.5,0000.0,0002.15,0001.39,0001.17
2023-09-04 02:16:00,SystemResetWarning,0828.8,5.01,000.00,029.1,025.3,000.0,037.0,029.6,32.9,0000.0,0002.01,0001.34,0001.16
2023-09-04 02:17:00,SystemResetWarning,0828.7,4.99,000.00,029.1,025.7,000.0,037.0,029.7,32.6,0000.0,0001.99,0001.33,0001.15
2023-09-04 02:18:00,SystemResetWarning,0828.7,5.00,000.00,029.1,026.0,000.0,037.1,029.8,32.4,0000.0,0001.99,0001.34,0001.14
2023-09-04 02:19:00,SystemResetWarning,0828.7,5.01,000.00,029.2,026.3,000.0,037.1,029.9,31.9,0000.0,0002.00,0001.34,0001.13
2023-09-04 02:20:00,SystemResetWarning,0828.8,5.00,000.00,029.2,026.6,000.0,037.2,030.0,31.9,0000.0,0001.96,0001.32,0001.13
2023-09-04 02:21:00,SystemResetWarning,0828.8,5.00,000.00,029.2,026.8,000.0,037.2,030.0,31.6,0000.0,0002.00,0001.32,0001.11
2023-09-04 02:22:00,SystemResetWarning,0828.8,4.99,000.00,029.2,027.0,000.0,037.3,030.1,31.0,0000.0,0002.09,0001.35,0001.11
2023-09-04 02:23:00,SystemResetWarning,0828.8,5.00,000.00,029.3,027.1,000.0,037.3,030.2,30.7,0000.0,0002.13,0001.38,0001.11
2023-09-04 02:24:00,SystemResetWarning,0829.0,5.00,000.00,029.3,027.2,000.0,037.3,030.2,30.7,0000.0,0002.11,0001.39,0001.11
2023-09-04 02:25:00,SystemResetWarning,0828.9,4.99,000.00,029.3,026.8,000.0,037.3,030.1,30.8,0000.0,0002.02,0001.42,0001.10
2023-09-04 02:26:00,SystemResetWarning,0828.8,5.00,000.00,029.2,025.4,000.0,037.2,029.7,31.5,0000.0,0002.07,0001.43,0001.09
2023-09-04 02:27:00,SystemResetWarning,0828.8,5.00,000.00,029.1,024.9,000.0,037.2,029.6,31.5,0000.0,0002.03,0001.41,0001.07
2023-09-04 02:28:00,SystemResetWarning,0828.7,5.00,000.00,029.0,025.0,000.0,037.2,029.5,31.6,0000.0,0002.06,0001.42,0001.07
2023-09-04 02:29:00,SystemResetWarning,0828.8,5.01,000.00,028.9,025.3,000.0,037.2,029.6,32.1,0000.0,0002.33,0001.38,0001.06
2023-09-04 02:30:00,SystemResetWarning,0828.8,5.00,000.00,028.9,025.6,000.0,037.2,029.7,31.9,0000.0,0002.37,0001.39,0001.06
2023-09-04 02:31:00,SystemResetWarning,0828.8,5.00,000.00,028.9,026.0,000.0,037.2,029.8,32.1,0000.0,0002.41,0001.41,0001.06
2023-09-04 02:32:00,SystemResetWarning,0828.9,5.00,000.00,028.9,026.3,000.0,037.2,029.9,32.2,0000.0,0002.30,0001.38,0001.06
2023-09-04 02:33:00,SystemResetWarning,0829.0,5.00,000.00,028.9,026.5,000.0,037.2,029.9,32.3,0000.0,0002.27,0001.34,0001.04
2023-09-04 02:34:00,SystemResetWarning,0829.0,5.00,000.00,028.9,026.7,000.0,037.2,030.0,32.3,0000.0,0002.34,0001.33,0001.04
2023-09-04 02:35:00,SystemResetWarning,0829.0,4.99,000.00,028.9,026.9,000.0,037.2,030.0,32.4,0000.0,0002.34,0001.33,0001.04
2023-09-04 02:36:00,SystemResetWarning,0828.9,5.00,000.00,028.9,027.1,000.0,037.2,030.1,32.4,0000.0,0002.33,0001.31,0001.05
2023-09-04 02:37:00,SystemResetWarning,0829.0,5.00,000.00,028.9,027.2,000.0,037.2,030.1,32.5,0000.0,0002.35,0001.31,0001.05
2023-09-04 02:38:00,SystemResetWarning,0829.0,4.99,000.00,029.0,027.1,000.0,037.2,030.1,32.7,0000.0,0002.38,0001.33,0001.05
2023-09-04 02:39:00,SystemResetWarning,0829.1,4.99,000.00,028.9,025.6,000.0,037.1,029.7,32.9,0000.0,0002.37,0001.32,0001.04
2023-09-04 02:40:00,SystemResetWarning,0829.1,5.00,000.00,028.8,024.4,000.0,037.0,029.4,33.6,0000.0,0002.13,0001.31,0001.03
2023-09-04 02:41:00,SystemResetWarning,0829.1,5.00,000.00,028.6,024.0,000.0,036.9,029.2,33.7,0000.0,0001.99,0001.28,0001.01
2023-09-04 02:42:00,SystemResetWarning,0829.1,5.01,000.00,028.5,024.2,000.0,036.9,029.1,34.0,0000.0,0001.94,0001.25,0000.99
2023-09-04 02:43:00,SystemResetWarning,0829.2,4.99,000.00,028.4,024.6,000.0,036.9,029.2,34.7,0000.0,0001.99,0001.23,0000.98
2023-09-04 02:44:00,SystemResetWarning,0829.2,4.99,000.00,028.4,025.1,000.0,036.9,029.4,35.3,0000.0,0002.04,0001.26,0000.99
2023-09-04 02:45:00,SystemResetWarning,0829.3,5.03,000.00,028.6,025.5,000.0,036.9,029.6,34.9,0000.0,0001.94,0001.25,0001.01
2023-09-04 02:46:00,SystemResetWarning,0829.3,4.96,000.00,028.9,025.8,000.0,036.9,029.8,34.0,0000.0,0002.04,0001.25,0001.01
2023-09-04 02:47:00,SystemResetWarning,0829.3,5.03,000.00,029.0,026.1,000.0,036.9,029.8,33.8,0000.0,0002.03,0001.26,0001.02
2023-09-04 02:48:00,SystemResetWarning,0829.3,4.99,000.00,029.1,026.4,000.0,036.9,029.9,33.5,0000.0,0001.99,0001.28,0001.04
2023-09-04 02:49:00,SystemResetWarning,0829.4,4.99,000.00,029.2,026.6,000.0,037.0,029.9,33.5,0000.0,0002.15,0001.29,0001.06
2023-09-04 02:50:00,SystemResetWarning,0829.4,5.00,000.00,029.2,026.8,000.0,037.0,030.0,33.4,0000.0,0002.31,0001.35,0001.09
2023-09-04 02:51:00,SystemResetWarning,0829.4,5.01,000.00,029.2,026.9,000.0,037.1,030.0,33.2,0000.0,0002.41,0001.40,0001.12
2023-09-04 02:52:00,SystemResetWarning,0829.4,5.01,000.00,029.3,027.0,000.0,037.1,030.1,32.9,0000.0,0002.59,0001.47,0001.16
2023-09-04 02:53:00,SystemResetWarning,0829.4,5.00,000.00,029.3,027.1,000.0,037.2,030.1,32.5,0000.0,0002.62,0001.52,0001.20
2023-09-04 02:54:00,SystemResetWarning,0829.5,5.00,000.00,029.3,027.2,000.0,037.2,030.1,32.1,0000.0,0002.65,0001.56,0001.24
2023-09-04 02:55:00,SystemResetWarning,0829.6,5.00,000.00,029.3,027.3,000.0,037.3,030.2,32.2,0000.0,0002.60,0001.58,0001.26
2023-09-04 02:56:00,SystemResetWarning,0829.6,4.99,000.00,029.3,026.7,000.0,037.3,030.0,32.1,0000.0,0002.65,0001.62,0001.28
2023-09-04 02:57:00,SystemResetWarning,0829.6,4.99,000.00,029.2,025.3,000.0,037.2,029.7,32.0,0000.0,0002.55,0001.63,0001.29
2023-09-04 02:58:00,SystemResetWarning,0829.5,5.01,000.00,029.1,024.8,000.0,037.1,029.5,32.0,0000.0,0002.56,0001.65,0001.31
2023-09-04 02:59:00,SystemResetWarning,0829.5,5.01,000.00,029.0,024.9,000.0,037.2,029.4,32.0,0000.0,0002.65,0001.67,0001.32
